• In Germany
  • List of Countries
  • For 7 days
  • Water Temperature
  • Satellite Maps
  • Weather Map
  • Weather Widgets
  • user-avatar
    Login

    Hourly Weather Ghadamis

    Today, 24 September, Sunday

    Time Temperature Precipitation Wind Pressure Humidity
    00:00 +30°C° 0 mm 5 mps 735 mmHg 43%
    01:00 +30°C° 0 mm 4 mps 734 mmHg 45%
    02:00 +29°C° 0 mm 4 mps 734 mmHg 47%
    03:00 +29°C° 0 mm 4 mps 734 mmHg 49%
    04:00 +28°C° 0 mm 4 mps 734 mmHg 51%
    05:00 +28°C° 0 mm 4 mps 734 mmHg 54%
    06:00 +27°C° 0 mm 4 mps 734 mmHg 57%
    07:00 +27°C° 0 mm 4 mps 734 mmHg 60%
    08:00 +28°C° 0 mm 4 mps 734 mmHg 55%
    09:00 +29°C° 0 mm 4 mps 735 mmHg 50%
    10:00 +30°C° 0 mm 4 mps 735 mmHg 45%
    11:00 +33°C° 0 mm 4 mps 735 mmHg 38%
    12:00 +34°C° 0 mm 5 mps 735 mmHg 32%
    13:00 +36°C° 0 mm 5 mps 734 mmHg 25%
    14:00 +36°C° 0 mm 5 mps 734 mmHg 23%
    15:00 +36°C° 0 mm 6 mps 734 mmHg 22%
    16:00 +36°C° 0 mm 6 mps 734 mmHg 20%
    17:00 +35°C° 0 mm 6 mps 734 mmHg 21%
    18:00 +34°C° 0 mm 5 mps 734 mmHg 22%
    19:00 +33°C° 0 mm 5 mps 734 mmHg 24%
    20:00 +32°C° 0 mm 4 mps 734 mmHg 25%
    21:00 +32°C° 0 mm 4 mps 735 mmHg 27%
    22:00 +30°C° 0 mm 3 mps 735 mmHg 28%
    23:00 +29°C° 0 mm 3 mps 735 mmHg 30%

    Tomorrow, 25 September, Monday

    Time Temperature Precipitation Wind Pressure Humidity
    00:00 +29°C° 0 mm 3 mps 735 mmHg 32%
    01:00 +28°C° 0 mm 2 mps 735 mmHg 34%
    02:00 +28°C° 0 mm 2 mps 734 mmHg 36%
    03:00 +27°C° 0 mm 2 mps 734 mmHg 38%
    04:00 +27°C° 0 mm 2 mps 733 mmHg 39%
    05:00 +27°C° 0 mm 2 mps 734 mmHg 41%
    06:00 +27°C° 0 mm 2 mps 734 mmHg 42%
    07:00 +27°C° 0 mm 2 mps 734 mmHg 43%
    08:00 +28°C° 0 mm 2 mps 734 mmHg 40%
    09:00 +30°C° 0 mm 2 mps 735 mmHg 37%
    10:00 +31°C° 0 mm 2 mps 735 mmHg 33%
    11:00 +32°C° 0 mm 2 mps 735 mmHg 29%
    12:00 +34°C° 0 mm 2 mps 735 mmHg 25%
    13:00 +35°C° 0 mm 2 mps 734 mmHg 21%
    14:00 +36°C° 0 mm 2 mps 734 mmHg 20%
    15:00 +36°C° 0 mm 2 mps 733 mmHg 18%
    16:00 +36°C° 0 mm 2 mps 733 mmHg 17%
    17:00 +35°C° 0 mm 2 mps 733 mmHg 18%
    18:00 +35°C° 0 mm 2 mps 733 mmHg 19%
    19:00 +34°C° 0 mm 2 mps 733 mmHg 20%
    20:00 +32°C° 0 mm 2 mps 733 mmHg 20%
    21:00 +32°C° 0 mm 2 mps 734 mmHg 21%
    22:00 +31°C° 0 mm 2 mps 734 mmHg 22%
    23:00 +31°C° 0 mm 2 mps 734 mmHg 23%

    Day after tomorrow, 26 September, Tuesday

    Time Temperature Precipitation Wind Pressure Humidity
    00:00 +30°C° 0 mm 3 mps 733 mmHg 24%
    01:00 +30°C° 0 mm 3 mps 733 mmHg 24%
    02:00 +29°C° 0 mm 3 mps 733 mmHg 27%
    03:00 +28°C° 0 mm 3 mps 733 mmHg 29%
    04:00 +28°C° 0 mm 3 mps 732 mmHg 31%
    05:00 +28°C° 0 mm 3 mps 732 mmHg 30%
    06:00 +28°C° 0 mm 3 mps 733 mmHg 30%
    07:00 +28°C° 0 mm 3 mps 733 mmHg 29%
    08:00 +30°C° 0 mm 3 mps 733 mmHg 26%
    09:00 +33°C° 0 mm 4 mps 734 mmHg 22%
    10:00 +35°C° 0 mm 5 mps 734 mmHg 19%
    11:00 +36°C° 0 mm 4 mps 734 mmHg 17%
    12:00 +36°C° 0 mm 3 mps 733 mmHg 16%
    13:00 +37°C° 0 mm 2 mps 733 mmHg 15%
    14:00 +37°C° 0 mm 2 mps 732 mmHg 14%
    15:00 +36°C° 0 mm 1 mps 732 mmHg 14%
    16:00 +36°C° 0 mm 1 mps 732 mmHg 13%
    17:00 +36°C° 0 mm 2 mps 732 mmHg 14%
    18:00 +35°C° 0 mm 2 mps 732 mmHg 15%
    19:00 +34°C° 0 mm 2 mps 732 mmHg 16%
    20:00 +34°C° 0 mm 2 mps 732 mmHg 16%
    21:00 +32°C° 0 mm 2 mps 733 mmHg 16%
    22:00 +31°C° 0 mm 2 mps 733 mmHg 17%
    23:00 +31°C° 0 mm 2 mps 733 mmHg 18%

    27 September, Wednesday

    Time Temperature Precipitation Wind Pressure Humidity
    00:00 +30°C° 0 mm 2 mps 733 mmHg 18%
    01:00 +29°C° 0 mm 2 mps 733 mmHg 19%
    02:00 +29°C° 0 mm 2 mps 732 mmHg 20%
    03:00 +28°C° 0 mm 2 mps 732 mmHg 21%
    04:00 +28°C° 0 mm 2 mps 732 mmHg 22%
    05:00 +28°C° 0 mm 2 mps 732 mmHg 22%
    06:00 +28°C° 0 mm 2 mps 733 mmHg 22%
    07:00 +28°C° 0 mm 3 mps 733 mmHg 23%
    08:00 +30°C° 0 mm 4 mps 733 mmHg 21%
    09:00 +33°C° 0 mm 5 mps 734 mmHg 20%
    10:00 +35°C° 0 mm 5 mps 734 mmHg 18%
    11:00 +36°C° 0 mm 5 mps 734 mmHg 17%
    12:00 +37°C° 0 mm 4 mps 733 mmHg 15%
    13:00 +38°C° 0 mm 3 mps 733 mmHg 13%
    14:00 +38°C° 0 mm 2 mps 733 mmHg 12%
    15:00 +38°C° 0 mm 2 mps 732 mmHg 12%
    16:00 +37°C° 0 mm 1 mps 732 mmHg 12%
    17:00 +36°C° 0 mm 1 mps 732 mmHg 12%
    18:00 +35°C° 0 mm 1 mps 732 mmHg 13%
    19:00 +34°C° 0 mm 2 mps 732 mmHg 14%
    20:00 +34°C° 0 mm 2 mps 732 mmHg 15%
    21:00 +32°C° 0 mm 2 mps 733 mmHg 16%
    22:00 +31°C° 0 mm 2 mps 733 mmHg 16%
    23:00 +31°C° 0 mm 2 mps 733 mmHg 18%

    28 September, Thursday

    Time Temperature Precipitation Wind Pressure Humidity
    00:00 +30°C° 0 mm 3 mps 733 mmHg 19%
    01:00 +30°C° 0 mm 3 mps 733 mmHg 21%
    02:00 +29°C° 0 mm 3 mps 732 mmHg 24%
    03:00 +28°C° 0 mm 2 mps 732 mmHg 26%
    04:00 +28°C° 0 mm 2 mps 732 mmHg 29%
    05:00 +27°C° 0 mm 2 mps 733 mmHg 32%
    06:00 +27°C° 0 mm 2 mps 733 mmHg 34%
    07:00 +27°C° 0 mm 2 mps 733 mmHg 36%
    08:00 +28°C° 0 mm 2 mps 734 mmHg 33%
    09:00 +30°C° 0 mm 2 mps 734 mmHg 29%
    10:00 +32°C° 0 mm 2 mps 734 mmHg 26%
    11:00 +34°C° 0 mm 2 mps 734 mmHg 23%
    12:00 +36°C° 0 mm 2 mps 733 mmHg 20%
    13:00 +37°C° 0 mm 2 mps 733 mmHg 18%
    14:00 +37°C° 0 mm 3 mps 733 mmHg 17%
    15:00 +37°C° 0 mm 3 mps 732 mmHg 16%
    16:00 +38°C° 0 mm 4 mps 732 mmHg 15%
    17:00 +37°C° 0 mm 4 mps 732 mmHg 18%
    18:00 +35°C° 0 mm 5 mps 732 mmHg 21%
    19:00 +34°C° 0 mm 6 mps 732 mmHg 23%
    20:00 +33°C° 0 mm 7 mps 733 mmHg 32%
    21:00 +31°C° 0 mm 8 mps 733 mmHg 41%
    22:00 +29°C° 0 mm 9 mps 733 mmHg 50%
    23:00 +28°C° 0 mm 9 mps 733 mmHg 53%

    29 September, Friday

    Time Temperature Precipitation Wind Pressure Humidity
    00:00 +27°C° 0 mm 8 mps 733 mmHg 56%
    01:00 +26°C° 0 mm 8 mps 733 mmHg 59%
    02:00 +26°C° 0 mm 7 mps 733 mmHg 61%
    03:00 +24°C° 0 mm 7 mps 733 mmHg 63%
    04:00 +24°C° 0 mm 7 mps 733 mmHg 65%
    05:00 +24°C° 0 mm 7 mps 733 mmHg 64%
    06:00 +23°C° 0 mm 7 mps 733 mmHg 64%
    07:00 +23°C° 0 mm 7 mps 733 mmHg 64%
    08:00 +26°C° 0 mm 7 mps 733 mmHg 59%
    09:00 +27°C° 0 mm 7 mps 733 mmHg 53%
    10:00 +28°C° 0 mm 7 mps 733 mmHg 48%
    11:00 +30°C° 0 mm 7 mps 733 mmHg 43%
    12:00 +32°C° 0 mm 7 mps 733 mmHg 37%
    13:00 +33°C° 0 mm 7 mps 732 mmHg 32%
    14:00 +34°C° 0 mm 7 mps 732 mmHg 31%
    15:00 +34°C° 0 mm 7 mps 732 mmHg 29%
    16:00 +34°C° 0 mm 8 mps 731 mmHg 28%
    17:00 +33°C° 0 mm 8 mps 731 mmHg 30%
    18:00 +32°C° 0 mm 8 mps 732 mmHg 31%
    19:00 +29°C° 0 mm 8 mps 732 mmHg 32%
    20:00 +29°C° 0 mm 8 mps 732 mmHg 36%
    21:00 +28°C° 0 mm 8 mps 733 mmHg 39%
    22:00 +27°C° 0 mm 8 mps 733 mmHg 42%
    23:00 +26°C° 0 mm 8 mps 733 mmHg 47%
    Show more